This demonstration page uses our WeatherBlox Daily Observations layout. Learn more.

Left ArrowRight Arrow

30.00354, -91.81873

Hourly Observations for July 15, 2022

Temp ( °F °C ) Dew Point ( °F °C ) Humidity (%) Winds ( mph kmh ) Pressure ( in mb ) Visibility ( mi km ) Precip ( " mm )
12:53 am 00:53 Mostly Cloudy 78 25.6 75 23.9 90 90 SE 7 11 30.08 1019 10 16 0.00 0.00
1:53 am 01:53 Clear 78 25.6 74 23.3 87 87 E 3 6 30.06 1018 10 16 0.00 0.00
2:53 am 02:53 Clear 77 25 74 23.3 90 90 Calm 30.05 1018 10 16 0.00 0.00
3:53 am 03:53 Clear 77 25 74 23.3 90 90 ENE 5 7 30.05 1018 10 16 0.00 0.00
4:53 am 04:53 Clear 77 25 73 22.8 88 88 NE 3 6 30.06 1018 10 16 0.00 0.00
5:53 am 05:53 Clear 77 25 73 22.8 88 88 Calm 30.07 1018 10 16 0.00 0.00
6:53 am 06:53 Sunny 77 25 73 22.8 88 88 Calm 30.07 1018 10 16 0.00 0.00
7:53 am 07:53 Sunny 79 26.1 75 23.9 88 88 E 3 6 30.08 1019 10 16 0.00 0.00
8:53 am 08:53 Sunny 81 27.2 76 24.4 85 85 ESE 8 13 30.09 1019 10 16 0.00 0.00
9:53 am 09:53 Partly Cloudy 87 30.6 76 24.4 70 70 ESE 5 7 30.09 1019 10 16 0.00 0.00
10:53 am 10:53 Mostly Sunny 89 31.7 75 23.9 63 63 VRB 3 6 30.09 1019 10 16 0.00 0.00
11:53 am 11:53 Mostly Cloudy 90 32.2 76 24.4 63 63 VRB 6 9 30.09 1019 10 16 0.00 0.00
12:40 pm 12:40 Cloudy with Heavy Rain 83 28.3 76 24.4 79 79 SE 6 9 30.10 1019 2 3 0.10 2.54
12:45 pm 12:45 Cloudy with Nearby Thunderstorms 82 27.8 76 24.4 82 82 SE 8 13 30.10 1019 4 6 0.14 3.56
12:53 pm 12:53 Cloudy with Nearby Thunderstorms 80 26.7 74 23.3 82 82 SE 18 30 30.10 1019 4 6 0.29 7.37
12:59 pm 12:59 Cloudy with Strong Thunderstorms 77 25 71 21.7 82 82 ESE 17 28 30.11 1020 3 5 0.33 8.38
1:10 pm 13:10 Cloudy with Strong Thunderstorms 77 25 71 21.7 82 82 SSW 8 13 30.12 1020 1 2 0.78 19.81
1:39 pm 13:39 Cloudy with Strong Thunderstorms 75 23.9 72 22.2 90 90 WNW 9 15 30.11 1020 1 2 1.30 33.02
1:45 pm 13:45 Cloudy with Nearby Thunderstorms 75 23.9 72 22.2 90 90 WNW 5 7 30.11 1020 2 3 1.31 33.27
1:53 pm 13:53 Mostly Cloudy with Nearby Thunderstorms 74 23.3 71 21.7 91 91 NNW 5 7 30.10 1019 8 13 1.31 33.27
2:05 pm 14:05 Mostly Cloudy with Light Rain 75 23.9 72 22.2 90 90 N 5 7 30.10 1019 10 16 0.00 0.00
2:53 pm 14:53 Sunny 86 30 72 22.2 63 63 Calm 30.08 1019 10 16 0.00 0.00
3:53 pm 15:53 Sunny 88 31.1 76 24.4 68 68 VRB 6 9 30.07 1018 10 16 0.00 0.00
4:45 pm 16:45 Sunny with Nearby Thunderstorms 88 31.1 73 22.8 61 61 SSW 6 9 30.06 1018 10 16 0.00 0.00
4:53 pm 16:53 Sunny with Nearby Thunderstorms 90 32.2 75 23.9 62 62 S 7 11 30.06 1018 10 16 0.00 0.00
5:04 pm 17:04 Sunny 88 31.1 73 22.8 61 61 S 5 7 30.07 1018 10 16 0.00 0.00
5:53 pm 17:53 Sunny 83 28.3 73 22.8 72 72 SSE 8 13 30.05 1018 10 16 0.00 0.00
6:53 pm 18:53 Sunny 83 28.3 74 23.3 74 74 SSE 7 11 30.05 1018 10 16 0.00 0.00
7:53 pm 19:53 Sunny 82 27.8 76 24.4 82 82 S 3 6 30.04 1017 10 16 0.00 0.00
8:53 pm 20:53 Partly Cloudy 79 26.1 76 24.4 90 90 SE 6 9 30.05 1018 10 16 0.00 0.00
9:53 pm 21:53 Clear 78 25.6 76 24.4 93 93 ESE 3 6 30.06 1018 10 16 0.00 0.00
10:53 pm 22:53 Clear 78 25.6 75 23.9 90 90 SE 3 6 30.05 1018 10 16 0.00 0.00
11:53 pm 23:53 Clear 77 25 75 23.9 94 94 Calm 30.06 1018 10 16 0.00 0.00

Powered by AerisWeather